Weather in Pokrovka

Russia / Orenburg Oblast     51°59′23″N   53°52′28″E
temp.,
°C
wind,
m/s
gust,
m/s
humid.,
%
clouds,
%
prec.,
mm/h
press.,
hPa
HPBL,
m
3 march, wed
wed323:00−4sw91595100 2.3 1008798
02:00−3sw81496100 1.1 1006680
05:00−3sw61296100 2.1 1005572
08:00−2sw5997100 0.8 1003441
11:00−1sw5897100 1.6 1003454
14:00−1sw46100100 0.5 1003429
17:000w35100100 1.6 1003350
20:00−4nw3796100 0.6 1004177
4 march, thu
thu423:00−6nw499098 0.6 1006214
02:00−11wnw489543 0.0 1007136
05:00−12wnw489761 0.0 1009145
08:00−14wsw349784 0.0 101056
11:00−11wsw6109687 0.1 1011270
14:00−7sw81393100 0.1 1010542
17:00−5sw91493100 0.3 1009770
20:00−4sw91694100 0.3 1008848
5 march, fri
fri523:00−2sw101794100 0.8 1007771
02:00−1wsw101693100 0.4 1007863
05:00−2sw91592100 0.4 1008714
08:00−3sw91693100 0.0 1008628
11:00−2sw101695100 0.1 1008727
14:000sw111799100 1.5 1007937
17:00+1sw101798100 2.9 1006819
20:00+1wsw101698100 0.9 1007813
6 march, sat
sat623:00+1wsw81398100 1.9 1010670
02:000w5998100 0.5 1011513
05:00−5nne3597100 1.1 1012177
08:00−5ene3497100 0.6 1011127
11:00−4ne5797100 3.1 1009252
14:00−3ene3498100 4.6 1007177
17:00−4nne6996100 7.1 1007299
20:00−6n5995100 1.4 1007378
7 march, sun
sun723:00−9n4894100 1.8 1009254
02:00−14nnw349294 0.0 101157
05:00−17nnw339573 0.0 101421
08:00−17nnw2289100 0.0 101520
11:00−14wnw118483 0.0 101671
14:00−11w24830 0.0 1017293
17:00−11wsw349540 0.0 1017277
20:00−16wsw239864 0.0 101820